Simultaneous Nadir Overpasses (SNOs) Predictions

Prediction of SNOs between GOES-16 and TERRA Satellite Orbit:

Table of predicted SNOs for the next 14.0 days since TLE Epoch: 6/29/2019
Index Date Time (GOES-16) GOES-16 Lat,Lon TERRA Lat,Lon Distance(km) Time Diff (sec)
1 06/30/2019 03:21:02 -0.01, -75.19 0.43, -73.06 242.19 80
2 06/30/2019 15:44:58 0.01, -75.20 0.63, -78.23 343.12 80
3 07/02/2019 15:32:46 0.01, -75.21 0.04, -75.26 7.27 80
4 07/04/2019 15:17:56 -0.01, -75.21 -0.65, -72.32 329.11 80
5 07/05/2019 03:42:00 0.01, -75.20 -0.49, -77.51 262.16 80
6 07/07/2019 03:27:10 0.02, -75.21 0.17, -74.56 74.44 80
7 07/09/2019 03:15:00 0.03, -75.23 0.81, -71.61 411.82 80
8 07/09/2019 15:38:55 -0.03, -75.25 0.27, -76.78 173.17 80
9 07/11/2019 15:24:06 -0.03, -75.27 -0.34, -73.82 164.99 80
10 07/12/2019 03:48:10 0.02, -75.27 -0.75, -79.02 425.62 80




NCC Satellite Simultaneous Nadir Overpasses (SNOs) Prediction Service
